Location: Unspecified
(0.0000°N, 0.0000°E)
Time: 23:39:04
(UTC+01:00)

Sapphire - Visible Passes

Search period start: 27 February 2015 00:00
Search period end: 09 March 2015 00:00
Orbit: 785 x 797 km, 67.1° (Epoch: 26 February)

Date Brightness Start Highest point End Pass type
(mag) Time Alt. Az. Time Alt. Az. Time Alt. Az.
27 Feb ? 21:24:17 10° SSW 21:28:01 41° SW 21:28:01 41° SW visible
28 Feb ? 20:53:40 10° SSW 20:59:05 88° WNW 20:59:40 72° NNE visible
01 Mar ? 20:23:17 10° S 20:28:36 60° ESE 20:31:32 26° NE visible
02 Mar ? 19:53:07 10° S 19:58:05 39° ESE 20:03:07 10° NE visible
02 Mar ? 21:38:40 10° W 21:41:28 14° WNW 21:43:53 10° NW visible
03 Mar ? 21:06:46 10° WSW 21:10:52 21° WNW 21:14:47 10° NNW visible
04 Mar ? 20:35:30 10° SW 20:40:19 32° WNW 20:45:03 10° N visible
05 Mar ? 20:04:34 10° SW 20:09:48 50° WNW 20:15:00 10° N visible
06 Mar ? 19:33:53 10° SSW 19:39:18 78° WNW 19:44:42 10° NNE visible
07 Mar ? 06:28:24 10° NNE 06:32:23 22° ENE 06:36:33 10° ESE visible
08 Mar ? 05:59:13 10° NE 06:01:47 14° ENE 06:04:43 10° E visible
08 Mar ? 20:19:38 10° W 20:21:43 12° WNW 20:23:22 10° NW visible
